STARLINK-34161, 64017

Orbit data source: Space-Track

STARLINK-34161, 64017 is a payload satellite owned by SpaceX/Seattle (US) in LEO that was launched on Wed, 14 May 2025 UTC via an FALCON 9 launch vehicle from the Air Force Eastern Test Range (AFETR). Payload-class satellites include a variety of spacecraft equipped with specific instruments for various scientific and technological missions. These include communications satellites like Starlink; space stations such as the ISS; scientific satellites like the Hubble; Earth observation satellites from companies like Planet Labs, Umbra, and HawkEye 360; GPS; miniature CubeSats for education and research; and military/defense satellites.

Loading next visibility...
Identifier
64017, 2025-101Z
Orbit
LEO
Country
Flag of USUS
Related business
Manufacturer
SpaceX/Seattle
Mission
Operational Commercial Communications
Bus & Motor
STARLINK V2MO, Unknown motor
Mass
575 kg wet, ~530 kg dry
Launch date (UTC)
2025-05-14 (1 year ago)
Launch vehicle
FALCON 9
Launch site
Air Force Eastern Test Range (AFETR)
Object type
Payload
Rocket body
Debris
Shape & HBR
Box + 2 Pan, 17.7 m
Radar Cross Section
36.964 m², Large (>1 m²)

Expand to show TLE details & history
Last TLE update: 16 hours ago

TLE from 16 hours ago
0 STARLINK-34161
1 64017U 25101Z   26171.19472220 -.00005813  00000-0 -20177-3 0  9990
2 64017  43.0005 138.9226 0001544 273.8110  86.2565 15.27594065 62733
Epoch: 2026-06-20T04:40Z
TLE epoch observation values (Epoch: 2026-06-20T04:40:23.998Z)
Latitude
-0.00001°
Longitude
160.40976°
Altitude
482.713 km
Speed
7.626 km/s
True Right ascension
09h 15m 41s
True Declination
0° 00' 00"
Sunlit
Object was in daylight at epoch
Visualization orbit readout
Latitude
Unknown
Longitude
Unknown
Altitude
Unknown
Speed
Unknown
Apparent Right ascension
Unknown
Apparent Declination
Unknown
Sunlit
N/A
Visualization observer readout
Local Sidereal Time
07:12:23
Azimuth
Unknown
Elevation
Unknown
Doppler factor
Unknown
Orbital elements
Apogee altitude
486.012 km
Perigee altitude
483.892 km
Semi-major axis
6,863.089 km
Eccentricity
0.00015
Inclination
43.0005°
RAAN
138.9226°
Arg. of periapsis
273.811°
True anomaly
86.27416°
Mean anomaly
86.2565°
Eccentric anomaly
86.26533°
Mean motion
3.81737 °/min
Orbital period
94.31 mins
BSTAR
-0.00020177
Loading maneuver chart data...
Computing Atmospheric mass density...
Loading historical data...
Loading historical data...
Loading historical data...
Loading historical data...
Loading historical data...
Loading historical data...
Loading historical data...

Documentation

Showing up to 5 results
|